Location: *
(37.9500°N, 27.3666°E)
Time: 06:10:03
(UTC+00:00)

Cosmos 614 Rocket - Pass Details

Date: 02 June 2022
Orbit: 732 x 764 km, 74.1° (Epoch: 03 July)

Event Time Altitude Azimuth Distance (km) Brightness Sun altitude
Rises 00:20:49 0° 328° (NNW) 3,224 7.6 -22.3°
Reaches altitude 10° 00:23:32 10° 316° (NW) 2,298 6.6 -22.0°
Enters shadow 00:26:54 24° 277° (W) 1,533 5.3 -21.7°
